{"data":{"norad_id":62859,"epoch":"2026-05-25T02:50:08.382048Z","epoch_age_seconds":74903,"freshness":"FRESH","line1":"1 62859U 25022F   26145.11815257  .00023276  00000+0  79541-3 0  9997","line2":"2 62859  53.1567 134.4542 0001020  66.6140 293.4968 15.30204970 73606","mean_motion":15.3020497,"eccentricity":0.000102,"inclination_deg":53.1567,"raan_deg":134.4542,"arg_perigee_deg":66.614,"mean_anomaly_deg":293.4968,"bstar":0.00079541,"rev_number":7360,"period_min":94.105040058784,"perigee_km":474.50118953788,"apogee_km":475.89927033279,"semimajor_km":6853.3372299353,"source":"CELESTRAK","updated_at":"2026-05-25T13:38:19.783882Z"}}